Probability
0 0 0 0 0 0 0 0 0 0 0 0 0 0 0 0 0 0 0 0 0 0 0 0 0 0 0 0 0 0 0 0 0 0 0 0 0 0 0 0 0 0 0
0 0 0 0 0 0 0 0 0 0 0 0 0 0 0 0 0 0 0 0 0 0 0 0 0 0 0 0 0 0 0 0 0 0 0 0 0 0 0 0 0 0 0
0 0 0 0 0 0 0 0 0 0 0 0 0 0 0 0 0 0 0 0 0 0 0 0 0 0 0 0 0 0 0 0 0 0 0 0 0 0 0 0 0 0 0
0 0 0 0 0 0 0 0 0 0 0 0 0 0 0 0 0 0 0 0 0 0 0 0 0 0 0 0 0 0 0 0 0 0 0 0 0 0 0 0 0 0 0
0 0 0 0 0 0 0 0 0 0 0 0 0 0 0 0 0 0 0 0 0 0 0 0 0 0 0 0 0 0 0 0 0 0 0 0 0 0 0 0 0 0 0
0 0 0 0 0 0 0 0 0 0 0 0 0 0 0 0 0 0 0 0 0 0 0 0 0 0 0 0 0 0 0 0 0 0 0 0 0 0 0 0 0 0 0
0 0 0 0 0 0 0 0 0 0 0 0 0 0 0 0 0 0 0 0 0 0 0 0 0 0 0 0 0 0 0 0 0 0 0 0 0 0 0 0 0 0 0
0 0 0 0 0 0 0 0 0 0 0 0 0 0 0 0 0 0 0 0 0 0 0 0 0 0 0 0 0 0 0 0 0 0 0 0 0 0 0 0 0 0 0
0 0 0 0 0 0 0 0 0 0 0 0 0 0 0 0 0 0 0 0 0 0 0 0 0 0 0 0 0 0 0 0 0 0 0 0 0 0 0 0 0 0 0
0 0 0 0 0 0 0 0 0 0 0 0 0 0 0 0 0 0 0 0 0 0 0 0 0 0 0 0 0 0 0 0 0 0 0 0 0 0 0 0 0 0 0
0 0 0 0 0 0 0 0 0 0 0 0 0 0 0 0 0 0 0 0 0 0 0 0 0 0 0 0 0 0 0 0 0 0 0 0 0 0 0 0 0 0 0
0 0 0 0 0 0 0 0 0 0 0 0 0 0 0 0 0 0 0 0 0 0 0 0 0 0 0 0 0 0 0 0 0 0 0 0 0 0 0 0 0 0 0
0 0 0 0 0 0 0 0 0 0 0 0 0 0 0 0 0 0 0 0 0 0 0 0 0 0 0 0 0 0 0 0 0 0 0 0 0 0 0 0 0 0 0
0 0 0 0 0 0 0 0 0 0 0 0 0 0 0 0 0 0 0 0 0 0 0 0 0 0 0 0 0 0 0 0 0 0 0 0 0 0 0 0 0 0 0
0 0 0 0 0 0 0 0 0 0 0 0 0 0 0 0 0 0 0 0 0 0 0 0 0 0 0 0 0 0 0 0 0 0 0 0 0 0 0 0 0 0 0
0 0 0 0 0 0 0 0 0 0 0 0 0 0 0 0 0 0 0 0 0 0 0 0 0 0 0 0 0 0 0 0 0 0 0 0 0 0 0 0 0 0 0
0 0 0 0 0 0 0 0 0 0 0 0 0 0 0 0 0 0 0 0 0 0 0 0 0 0 0 0 0 0 0 0 0 0 0 0 0 0 0 0 0 0 0
0 0 0 0 0 0 0 0 0 0 0 0 0 0 0 0 0 0 0 0 0 0 0 0 0 0 0 0 0 0 0 0 0 0 0 0 0 0 0 0 0 0 0
0 0 0 0 0 0 0 0 0 0 0 0 0 0 0 0 0 0 0 0 0 0 0 0 0 0 0 0 0 0 0 0 0 0 0 0 0 0 0 0 0 0 0
0 0 0 0 0 0 0 0 0 0 0 0 0 0 0 0 0 0 0 0 0 0 0 0 0 0 0 0 0 0 0 0 0 0 0 0 0 0 0 0 0 0 0
0 0 0 0 0 0 0 0 0 0 0 0 0 0 0 0 0 0 0 0 0 0 0 0 0 0 0 0 0 0 0 0 0 0 0 0 0 0 0 0 0 0 0
0 0 0 0 0 0 0 0 0 0 0 0 0 0 0 0 0 0 0 0 0 0 0 0 0 0 0 0 0 0 0 0 0 0 0 0 0 0 0 0 0 0 0
0 0 0 0 0 0 0 0 0 0 0 0 0 0 0 0 0 0 0 0 0 0 0 0 0 0 0 0 0 0 0 0 0 0 0 0 0 0 0 0 0 0 0
0 0 0 0 0 0 0 0 0 0 0 0 0 0 0 0 0 0 0 0 0 0 0 0 0 0 0 0 0 0 0 0 0 0 0 0 0 0 0 0 0 0 0
0 0 0 0 0 0 0 0 0 0 0 0 0 0 0 0 0 0 0 0 0 0 0 0 0 0 0 0 0 0 0 0 0 0 0 0 0 0 0 0 0 0 0
0 0 0 0 0 0 0 0 0 0 0 0 0 0 0 0 0 0 0 0 0 0 0 0 0 0 0 0 0 0 0 0 0 0 0 0 0 0 0 0 0 0 0
Wind_Speed
12 13 14 14 15 15 15 15 15 14 14 14 14 14 14 14 14 14 14 13 15 14 13 13 14 13 10 9 9 9 10 10 13 10 3 2 4 5 4 4 5 6 6
9 10 11 12 12 13 13 13 13 13 13 13 13 13 13 13 14 14 15 14 14 14 13 13 14 10 13 10 9 10 10 9 10 11 5 2 3 4 3 4 3 4 5
7 9 10 10 11 12 12 12 11 12 12 12 12 13 13 13 13 14 14 13 13 13 13 13 13 12 12 10 10 9 8 7 7 7 5 2 1 1 2 2 3 3 3
7 8 9 10 11 11 11 10 10 10 11 11 11 12 12 12 12 12 12 12 12 12 11 11 11 11 11 10 9 9 7 6 5 5 4 2 2 2 2 3 3 3 3
7 8 9 8 8 8 8 8 8 8 8 8 9 9 9 8 8 9 9 10 10 9 8 7 7 7 8 7 6 6 6 6 4 4 3 2 2 3 3 3 3 2 3
7 8 7 6 6 7 7 6 6 6 6 6 7 7 7 5 6 8 8 7 7 7 6 5 5 5 5 6 6 6 5 5 5 4 3 4 4 4 3 3 3 3 3
7 7 6 6 6 6 6 6 6 6 6 6 6 6 6 6 7 8 9 7 6 6 6 5 3 2 3 3 3 2 2 2 4 4 4 4 3 5 5 5 4 3 2
7 7 6 7 7 5 6 6 6 5 5 5 5 6 5 4 6 7 8 6 5 4 4 4 4 3 3 4 4 3 2 1 1 1 1 1 2 3 5 4 4 3 2
7 8 7 8 7 7 8 7 6 5 5 5 4 5 5 4 5 7 7 5 4 3 2 3 3 3 4 6 5 4 3 2 4 5 4 4 5 5 6 5 4 3 2
9 8 7 7 8 8 8 6 5 5 5 4 4 3 4 4 5 7 7 4 4 3 2 2 3 4 5 6 5 5 4 3 3 4 5 6 4 4 6 3 4 3 2
6 6 6 7 7 7 6 5 5 5 5 5 4 3 3 3 4 6 7 4 5 5 4 3 2 5 6 6 5 3 5 5 4 4 4 4 3 2 2 2 1 1 2
4 5 6 6 6 5 6 5 5 6 6 5 5 4 2 2 3 5 6 6 5 5 4 3 4 7 7 7 5 7 9 7 4 4 3 3 2 2 2 2 2 3 2
4 5 5 5 5 5 6 7 6 6 6 6 6 5 4 3 3 5 6 7 7 4 4 7 8 9 8 6 8 9 6 4 4 3 3 2 2 2 2 2 2 3 3
5 5 5 5 6 5 5 6 6 7 7 7 6 6 5 4 4 4 4 5 6 6 5 7 10 10 7 7 6 5 3 3 2 2 2 2 2 2 2 1 1 1 1
5 5 5 5 6 5 5 4 5 4 5 6 6 6 6 6 6 7 6 5 5 5 7 5 4 4 4 4 3 3 3 3 2 2 2 2 2 2 1 1 1 1 2
5 5 5 5 5 5 5 4 4 4 5 6 6 6 3 5 9 10 10 10 10 12 7 5 5 4 4 4 3 3 2 2 2 2 2 2 2 2 2 1 1 2 2
5 4 4 5 5 6 6 6 5 4 6 6 7 8 7 9 11 11 12 12 11 10 5 4 4 4 3 3 3 2 2 2 2 2 2 2 2 2 2 2 2 2 2
4 4 4 4 5 5 5 5 5 6 5 3 4 7 9 11 11 12 13 11 6 4 3 4 4 3 3 3 3 2 2 2 2 2 2 2 2 2 2 2 2 2 2
3 3 3 3 3 4 4 5 5 5 5 5 4 5 6 9 10 11 10 5 5 4 4 4 3 3 3 3 3 2 2 2 2 2 2 2 2 2 2 2 2 2 3
2 2 2 3 3 4 4 5 5 5 5 5 5 5 4 5 5 5 4 3 4 4 3 3 3 3 3 3 3 3 2 2 2 2 1 1 2 2 2 3 2 3 3
1 1 2 2 3 3 4 4 5 5 5 4 4 4 6 5 5 5 4 3 3 4 3 3 3 3 2 2 3 3 3 2 2 2 2 1 1 1 1 2 2 2 2
1 1 2 2 3 3 3 4 4 4 5 5 4 4 6 4 4 4 4 3 3 3 3 3 3 2 2 2 2 3 3 2 2 2 2 1 1 1 2 2 2 2 2
1 1 2 2 2 3 4 3 4 4 4 4 4 4 4 3 3 4 4 3 3 3 2 2 3 2 2 1 1 1 2 2 2 2 2 2 2 2 2 2 3 2 2
1 1 2 2 3 3 3 3 3 4 4 4 4 4 4 4 4 4 3 3 3 2 2 2 2 2 2 1 1 0 1 1 1 2 3 3 3 2 2 2 2 3 2
1 1 2 2 3 3 3 4 4 4 4 4 3 3 3 3 3 3 3 3 3 2 2 2 1 2 2 1 1 1 1 2 2 2 2 3 3 3 3 3 2 2 2
1 1 2 2 3 3 3 3 3 3 3 3 3 3 3 3 3 3 2 2 2 2 2 1 1 1 1 1 2 2 3 3 4 4 3 3 3 3 3 3 3 3 3
Wind_Direction
229 226 224 225 224 224 226 228 228 227 225 222 221 220 220 221 220 221 224 225 228 231 230 232 235 235 236 236 234 235 237 240 258 268 259 237 210 214 212 213 215 217 219
230 227 226 225 223 223 225 227 227 228 226 224 222 220 221 222 221 222 225 226 229 231 232 232 236 235 236 236 236 237 239 237 248 263 257 228 218 210 202 202 205 206 213
229 225 224 223 222 223 224 225 225 226 226 222 220 221 221 222 223 224 226 227 228 231 231 232 235 233 238 236 236 239 241 239 239 251 255 212 198 158 177 191 204 212 218
226 224 224 224 223 225 225 225 225 224 224 223 221 223 224 224 225 225 225 227 230 231 231 232 234 232 236 237 237 238 237 237 234 240 241 209 192 159 181 196 203 198 210
226 224 227 226 225 224 223 222 221 220 221 221 219 220 222 222 222 222 222 226 228 229 227 228 230 231 234 236 234 233 227 230 224 223 226 206 196 182 205 189 194 174 198
228 228 227 221 216 216 216 214 211 212 212 209 210 210 213 215 208 208 211 215 215 216 217 218 220 219 227 229 231 232 230 229 225 217 217 215 212 200 174 176 166 166 208
226 226 218 214 213 214 207 202 206 206 202 203 205 203 206 207 197 195 200 204 204 207 207 206 203 198 203 205 200 202 233 249 229 219 220 218 195 187 174 177 182 188 195
224 224 215 207 209 204 199 203 204 198 195 198 198 199 199 199 184 182 181 188 191 195 196 191 188 187 186 175 160 146 128 90 93 210 209 198 175 166 173 168 158 133 85
223 223 216 208 203 199 200 202 198 188 190 192 185 186 188 186 174 174 170 168 168 169 165 166 171 174 175 169 158 154 137 101 69 81 88 96 110 130 140 131 141 154 175
227 223 215 206 204 204 203 198 189 180 182 168 163 172 174 178 167 169 171 164 160 158 147 143 161 162 161 162 162 159 159 145 121 98 85 81 88 116 138 150 162 170 160
229 221 209 202 203 203 194 188 175 167 163 164 160 161 163 170 166 167 174 175 170 165 161 156 150 151 147 144 144 145 147 134 124 118 107 99 94 96 104 92 98 175 188
215 215 211 202 197 187 179 177 171 167 167 169 164 164 163 163 166 167 171 172 160 159 160 151 142 141 133 128 124 125 126 125 123 124 123 121 120 115 96 84 73 60 42
211 213 209 197 188 179 177 176 173 174 179 180 177 180 177 165 163 161 158 155 153 146 141 139 133 129 120 111 113 120 121 126 133 137 142 133 114 110 108 96 81 77 65
212 210 198 191 189 180 179 176 178 183 184 181 181 180 173 170 171 163 152 143 137 129 127 127 126 122 114 111 114 111 108 118 133 136 127 115 114 125 132 128 139 145 150
211 204 199 194 186 180 176 175 179 187 184 178 180 173 172 180 181 167 158 156 151 146 137 132 131 132 128 123 114 105 104 110 109 110 126 132 138 141 140 142 158 189 213
210 200 200 196 183 178 171 150 122 138 144 152 150 151 151 150 152 159 158 153 147 147 140 145 146 146 148 147 143 132 121 120 119 127 139 148 159 167 167 171 190 214 235
212 204 201 195 185 181 176 169 156 121 117 127 138 143 144 147 151 154 152 146 145 144 136 142 145 149 148 147 145 145 142 134 137 148 155 162 171 177 184 194 207 226 242
216 202 200 196 189 183 178 171 166 165 158 138 132 140 144 147 147 147 146 139 140 141 138 142 144 145 144 143 142 141 136 140 149 157 160 168 180 190 199 210 219 234 245
219 205 198 191 182 174 166 160 159 161 156 147 138 136 136 139 139 142 144 144 152 153 146 140 137 141 143 141 138 137 143 151 158 167 174 181 189 200 212 223 231 228 239
226 198 184 181 169 159 158 159 161 160 158 159 159 153 149 147 146 147 145 139 141 143 141 139 136 139 143 141 141 144 150 154 163 175 183 187 197 211 221 227 233 235 238
227 182 164 161 162 160 158 159 157 156 158 157 153 154 156 156 150 145 143 140 140 141 140 137 135 139 139 141 148 159 165 167 172 179 184 188 194 210 231 238 238 239 245
211 182 173 164 156 151 148 146 146 146 147 143 136 138 141 130 132 133 128 117 105 107 118 128 131 129 137 150 159 165 170 175 178 181 178 179 200 215 221 227 237 243 240
185 168 157 144 138 134 132 133 136 137 138 138 135 131 127 120 117 116 112 107 104 102 103 115 123 120 112 113 145 172 180 186 186 186 188 195 206 220 223 226 228 236 239
144 150 143 131 125 131 134 132 130 129 131 133 132 129 126 122 118 114 111 108 105 100 97 103 117 136 138 131 126 140 178 187 184 192 198 205 211 217 220 224 230 230 238
90 127 132 130 129 130 129 126 125 126 127 130 130 128 125 123 122 121 118 116 117 115 111 107 116 133 149 161 190 216 220 218 211 198 196 204 206 210 212 221 227 225 223
61 99 114 118 122 127 130 131 131 132 134 134 134 133 134 133 131 129 129 132 132 131 130 130 151 168 194 213 224 227 232 228 212 206 203 201 200 203 203 211 218 224 221